Weather History for Skagway, AK

Change the Weather History Date:

Thursday, January 2, 2014

  Actual Average Record
Temperature  
Mean Temperature 37 °F -  
Max Temperature 41 °F 28 °F 46 °F (1984)
Min Temperature 33 °F 20 °F -6 °F (1997)
Degree Days  
Heating Degree Days 28    
Moisture  
Dew Point 32 °F    
Average Humidity 83    
Maximum Humidity 92    
Minimum Humidity 65    
Precipitation  
Precipitation 0.02 in - - ()
Sea Level Pressure  
Sea Level Pressure 29.84 in    
Wind  
Wind Speed 8 mph (SSW)    
Max Wind Speed 20 mph    
Max Gust Speed 29 mph    
Visibility 9 miles    
Events Rain    
Averages and records for this station are not official NWS values.
T = Trace of Precipitation, MM = Missing Value Source: NWS Daily Summary

Daily Weather History Graph

Daily Weather History Graph

Search for Another Location

Airport:

Trip Planner

Search our weather history database for the weather conditions in past years. The results will help you decide how hot, cold, wet, or windy it might be!

Date:

Astronomy

Jan. 02, 2014 Rise Set
Actual Time 8:57 AM AKST 3:13 PM AKST
Civil Twilight 8:03 AM AKST 4:07 PM AKST
Nautical Twilight 7:08 AM AKST 5:02 PM AKST
Astronomical Twilight 6:18 AM AKST 5:53 PM AKST
Moon 9:09 AM AKST (1/2) 5:59 PM AKST (1/2)
Length of Visible Light 8h 04m
Length of Day
6h 15m
Waxing Crescent, 3% of the Moon is Illuminated
Jan 2
Waxing Crescent
Jan 7
First Quarter
Jan 15
Full
Jan 23
Last Quarter
Jan 30
New

Hourly Weather History & Observations

Time (AKST) Temp. Windchill Dew Point Humidity Pressure Visibility Wind Dir Wind Speed Gust Speed Precip Events Conditions
12:53 AM 41.0 °F 34.7 °F 30.0 °F 65% 29.81 in 10.0 mi South 10.4 mph - 0.00 in   Overcast
1:53 AM 39.9 °F 32.1 °F 30.9 °F 70% 29.81 in 10.0 mi SSW 13.8 mph 21.9 mph N/A   Overcast
3:53 AM 39.0 °F 29.6 °F 32.0 °F 76% 29.79 in 10.0 mi SSW 18.4 mph 28.8 mph N/A   Overcast
4:53 AM 39.0 °F 32.3 °F 32.0 °F 76% 29.78 in 10.0 mi SSW 10.4 mph 23.0 mph N/A   Overcast
5:53 AM 37.9 °F 27.9 °F 32.0 °F 79% 29.75 in 10.0 mi SSW 19.6 mph 25.3 mph 0.00 in   Overcast
6:53 AM 37.9 °F 32.7 °F 30.9 °F 76% 29.75 in 10.0 mi Variable 6.9 mph 17.3 mph 0.00 in   Overcast
7:53 AM 37.0 °F 28.5 °F 30.9 °F 79% 29.74 in 10.0 mi SSW 13.8 mph 23.0 mph 0.00 in   Overcast
8:53 AM 37.9 °F 34.4 °F 32.0 °F 79% 29.73 in 10.0 mi Variable 4.6 mph - 0.00 in Rain Light Rain
9:53 AM 37.9 °F 33.5 °F 32.0 °F 79% 29.74 in 10.0 mi Variable 5.8 mph - 0.00 in   Overcast
10:53 AM 37.9 °F 29.6 °F 32.0 °F 79% 29.75 in 10.0 mi South 13.8 mph 19.6 mph N/A   Overcast
11:53 AM 37.0 °F 29.3 °F 32.0 °F 82% 29.74 in 10.0 mi South 11.5 mph - 0.00 in   Overcast
12:29 PM 37.4 °F 30.8 °F 32.0 °F 81% 29.76 in 8.0 mi SSW 9.2 mph - 0.01 in Rain Light Rain
12:53 PM 36.0 °F 28.5 °F 32.0 °F 86% 29.76 in 8.0 mi SSW 10.4 mph - 0.02 in Rain Light Rain
1:50 PM 37.4 °F 30.3 °F 32.0 °F 81% 29.76 in 7.0 mi SSW 10.4 mph - 0.00 in   Overcast
1:53 PM 37.0 °F 29.3 °F 32.0 °F 82% 29.77 in 7.0 mi SSW 11.5 mph - 0.00 in   Overcast
2:41 PM 37.4 °F 30.8 °F 33.8 °F 87% 29.78 in 10.0 mi WSW 9.2 mph - N/A   Overcast
2:53 PM 36.0 °F 30.3 °F 32.0 °F 86% 29.78 in 10.0 mi SW 6.9 mph - N/A   Overcast
3:11 PM 35.6 °F 30.7 °F 32.0 °F 87% 29.79 in 10.0 mi SW 5.8 mph - N/A   Overcast
3:53 PM 36.0 °F - 33.1 °F 89% 29.81 in 10.0 mi Calm Calm - N/A   Overcast
4:51 PM 35.6 °F - 32.0 °F 87% 29.84 in 10.0 mi Calm Calm - N/A   Overcast
4:53 PM 35.1 °F - 33.1 °F 92% 29.84 in 10.0 mi Calm Calm - N/A   Overcast
5:53 PM 35.1 °F - 32.0 °F 89% 29.87 in 10.0 mi Calm Calm - N/A   Overcast
6:17 PM 35.6 °F - 32.0 °F 87% 29.88 in 10.0 mi Calm Calm - N/A   Overcast
6:53 PM 35.1 °F - 32.0 °F 89% 29.89 in 10.0 mi Calm Calm - N/A   Overcast
7:37 PM 35.6 °F - 32.0 °F 87% 29.92 in 9.0 mi Calm Calm - N/A   Overcast
7:53 PM 35.1 °F - 32.0 °F 89% 29.94 in 7.0 mi Calm Calm - N/A   Overcast
8:53 PM 35.1 °F - 30.9 °F 85% 29.96 in 10.0 mi Calm Calm - N/A   Overcast
9:53 PM 34.0 °F - 30.9 °F 89% 30.00 in 9.0 mi Calm Calm - N/A   Overcast
10:17 PM 33.8 °F - 30.2 °F 87% 30.02 in 7.0 mi Calm Calm - N/A   Overcast
10:53 PM 34.0 °F - 32.0 °F 92% 30.04 in 4.0 mi Calm Calm - N/A   Overcast
11:03 PM 33.8 °F - 30.2 °F 87% 30.04 in 3.0 mi Calm Calm - N/A   Overcast
11:53 PM 33.1 °F - 30.9 °F 92% 30.07 in 5.0 mi Calm Calm - N/A   Overcast